Location: Foulognes
(49.1413°N, 0.8183°W)
Time: 06:14:41
(UTC+00:00)

STARLINK-40 - Pass Details

Date: 21 October 2019
Orbit: 548 x 551 km, 53.0° (Epoch: 18 November)

Event Time Altitude Azimuth Distance (km) Brightness Sun altitude
Rises 18:12:59 0° 276° (W) 2,718 9.1 -12.2°
Reaches altitude 10° 18:15:17 10° 283° (WNW) 1,825 7.6 -12.6°
Maximum altitude 18:19:19 48° 358° (N) 724 4.2 -13.3°
Enters shadow 18:21:52 20° 66° (ENE) 1,289 5.0 -13.7°
